GW4032 Weather Reports


time (UTC)temp
C
wind
direction
speed
KPH
gust
KPH
rain 1hr
cm
rain 24hr
cm
rain mn
cm
humidity
%
barometer
mb
20260504130314 18 215 6.4 9.7 0.00 0.00 0.00 57 1000.0
20260504120314 16 198 6.4 6.4 0.00 0.00 0.00 62 999.0
20260504110315 17 212 3.2 4.8 0.00 0.00 0.00 60 999.0
20260504100317 18 209 12.9 14.5 0.00 0.00 0.00 58 999.0
20260504081814 17 234 6.4 11.3 0.00 0.00 0.00 63 1000.0
20260504081314 17 198 8.0 8.0 0.00 0.00 0.00 63 1000.0
20260504080814 18 195 9.7 12.9 0.00 0.00 0.00 62 1000.0
20260504080316 18 180 6.4 6.4 0.00 0.00 0.00 62 1000.0
20260504070315 18 192 8.0 11.3 0.00 0.00 0.00 61 1000.0
20260504050314 18 200 9.7 9.7 0.00 0.00 0.00 60 1001.0
20260504045814 18 211 6.4 8.0 0.00 0.00 0.00 60 1001.0
20260504045314 18 202 8.0 9.7 0.00 0.00 0.00 60 1001.0
20260504044814 18 197 4.8 4.8 0.00 0.00 0.00 60 1001.0
20260504044314 19 214 9.7 12.9 0.00 0.00 0.00 59 1001.0
20260504043815 19 198 9.7 11.3 0.00 0.00 0.00 59 1001.0
20260504043314 19 175 9.7 12.9 0.00 0.00 0.00 59 1001.0
20260504042814 19 216 8.0 9.7 0.00 0.00 0.00 58 1001.0
20260504042315 19 188 6.4 9.7 0.00 0.00 0.00 58 1001.0
20260504041814 19 201 9.7 12.9 0.00 0.00 0.00 58 1001.0
20260504041315 19 198 8.0 8.0 0.00 0.00 0.00 58 1001.0
20260504040814 19 203 9.7 9.7 0.00 0.00 0.00 57 1001.0
20260504040316 19 190 11.3 12.9 0.00 0.00 0.00 57 1001.0
20260504035815 19 200 8.0 9.7 0.00 0.00 0.00 57 1001.0
20260504035314 19 202 9.7 11.3 0.00 0.00 0.00 56 1001.0
20260504034814 19 178 6.4 8.0 0.00 0.00 0.00 56 1001.0
20260504034314 20 186 8.0 8.0 0.00 0.00 0.00 55 1001.0
20260504033814 19 186 6.4 11.3 0.00 0.00 0.00 56 1001.0
20260504033314 20 187 8.0 8.0 0.00 0.00 0.00 55 1001.0
20260504032814 20 193 8.0 11.3 0.00 0.00 0.00 54 1001.0
20260504032315 20 191 6.4 6.4 0.00 0.00 0.00 54 1001.0
20260504031814 20 191 8.0 9.7 0.00 0.00 0.00 53 1001.0
20260504031314 20 196 9.7 11.3 0.00 0.00 0.00 53 1001.0
20260504030814 20 178 9.7 9.7 0.00 0.00 0.00 53 1001.0
20260504030314 20 190 8.0 9.7 0.00 0.00 0.00 52 1001.0
20260504025814 20 190 8.0 8.0 0.00 0.00 0.00 52 1001.0
20260504025314 20 177 8.0 8.0 0.00 0.00 0.00 52 1001.0
20260504024814 20 183 9.7 9.7 0.00 0.00 0.00 51 1001.0
20260504024314 20 198 9.7 9.7 0.00 0.00 0.00 51 1001.0
20260504023815 20 194 6.4 9.7 0.00 0.00 0.00 51 1001.0
20260504023315 20 189 6.4 8.0 0.00 0.00 0.00 51 1001.0
20260504022814 20 192 8.0 8.0 0.00 0.00 0.00 51 1001.0
20260504022314 20 207 11.3 12.9 0.00 0.00 0.00 50 1001.0
20260504021814 20 200 8.0 8.0 0.00 0.00 0.00 50 1001.0
20260504021321 20 207 9.7 9.7 0.00 0.00 0.00 50 1001.0
20260504020814 20 199 6.4 8.0 0.00 0.00 0.00 50 1001.0
20260504020314 20 197 6.4 8.0 0.00 0.00 0.00 50 1001.0
20260504015815 20 200 8.0 9.7 0.00 0.00 0.00 50 1001.0
20260504015314 21 201 8.0 11.3 0.00 0.00 0.00 50 1001.0
20260504014814 21 189 9.7 11.3 0.00 0.00 0.00 49 1001.0
20260504014314 21 205 9.7 12.9 0.00 0.00 0.00 49 1001.0
20260504013814 21 205 8.0 8.0 0.00 0.00 0.00 48 1001.0
20260504013314 21 199 11.3 12.9 0.00 0.00 0.00 48 1001.0
20260504012814 21 200 9.7 11.3 0.00 0.00 0.00 49 1001.0
20260504012314 21 197 9.7 11.3 0.00 0.00 0.00 48 1001.0
20260504011814 21 185 11.3 12.9 0.00 0.00 0.00 48 1001.0
20260504011314 21 222 4.8 6.4 0.00 0.00 0.00 49 1001.0
20260504010814 21 196 8.0 8.0 0.00 0.00 0.00 49 1001.0
20260504010314 22 201 6.4 6.4 0.00 0.00 0.00 49 1001.0
20260504005814 22 195 6.4 8.0 0.00 0.00 0.00 48 1001.0
20260504005314 22 196 6.4 8.0 0.00 0.00 0.00 48 1001.0
20260504004814 22 240 6.4 9.7 0.00 0.00 0.00 48 1001.0
20260504004315 22 190 6.4 8.0 0.00 0.00 0.00 47 1001.0
20260504003814 22 201 6.4 6.4 0.00 0.00 0.00 46 1001.0
20260504003314 23 196 6.4 6.4 0.00 0.00 0.00 46 1001.0
20260504002815 23 183 4.8 9.7 0.00 0.00 0.00 45 1001.0
20260504002314 23 198 9.7 9.7 0.00 0.00 0.00 45 1001.0
20260504001814 23 185 6.4 8.0 0.00 0.00 0.00 45 1001.0
20260504001314 23 189 8.0 8.0 0.00 0.00 0.00 44 1001.0
20260504000814 23 197 9.7 11.3 0.00 0.00 0.00 44 1001.0
20260504000316 23 191 8.0 9.7 0.00 0.00 0.00 43 1001.0
20260503235814 23 199 9.7 9.7 0.00 0.00 0.00 43 1001.0
20260503235314 23 208 8.0 9.7 0.00 0.00 0.00 43 1001.0
20260503234815 24 198 9.7 12.9 0.00 0.00 0.00 41 1001.0
20260503234315 25 202 4.8 6.4 0.00 0.00 0.00 41 1001.0
20260503233815 25 201 8.0 9.7 0.00 0.00 0.00 40 1001.0
20260503233314 25 201 9.7 12.9 0.00 0.00 0.00 40 1001.0
20260503232814 25 201 6.4 8.0 0.00 0.00 0.00 40 1001.0
20260503232314 25 186 6.4 14.5 0.00 0.00 0.00 39 1001.0
20260503231814 25 188 11.3 14.5 0.00 0.00 0.00 39 1001.0
20260503231314 25 203 12.9 14.5 0.00 0.00 0.00 38 1001.0
20260503230814 25 232 8.0 12.9 0.00 0.00 0.00 39 1001.0
20260503230314 25 207 9.7 16.1 0.00 0.00 0.00 38 1001.0
20260503225814 25 208 14.5 16.1 0.00 0.00 0.00 37 1001.0
20260503225314 25 219 12.9 12.9 0.00 0.00 0.00 37 1001.0
20260503224814 26 200 17.7 20.9 0.00 0.00 0.00 37 1001.0
20260503224314 26 207 4.8 9.7 0.00 0.00 0.00 35 1001.0
20260503223815 26 204 8.0 9.7 0.00 0.00 0.00 35 1001.0
20260503223314 26 198 8.0 8.0 0.00 0.00 0.00 35 1001.0
20260503222814 26 204 8.0 20.9 0.00 0.00 0.00 34 1001.0
20260503222314 26 207 16.1 17.7 0.00 0.00 0.00 35 1001.0
20260503221814 26 208 12.9 12.9 0.00 0.00 0.00 34 1001.0
20260503221314 25 218 14.5 17.7 0.00 0.00 0.00 34 1001.0
20260503220814 26 224 14.5 16.1 0.00 0.00 0.00 35 1002.0
20260503220314 26 196 14.5 14.5 0.00 0.00 0.00 34 1002.0
20260503215814 26 186 9.7 12.9 0.00 0.00 0.00 35 1002.0
20260503215314 26 224 14.5 17.7 0.00 0.00 0.00 35 1002.0
20260503214814 26 197 8.0 11.3 0.00 0.00 0.00 35 1002.0
20260503214315 26 181 11.3 14.5 0.00 0.00 0.00 34 1002.0
20260503213814 26 183 3.2 6.4 0.00 0.00 0.00 33 1002.0
20260503213314 26 243 8.0 8.0 0.00 0.00 0.00 35 1002.0
20260503212814 26 270 9.7 20.9 0.00 0.00 0.00 35 1002.0
20260503212314 26 208 6.4 11.3 0.00 0.00 0.00 34 1003.0
20260503211814 26 230 4.8 14.5 0.00 0.00 0.00 34 1003.0
20260503211316 26 225 11.3 17.7 0.00 0.00 0.00 36 1003.0
20260503210814 26 194 8.0 11.3 0.00 0.00 0.00 35 1003.0
20260503210314 26 210 11.3 11.3 0.00 0.00 0.00 35 1003.0
20260503205814 26 180 9.7 14.5 0.00 0.00 0.00 36 1003.0
20260503205314 26 197 6.4 6.4 0.00 0.00 0.00 35 1003.0
20260503204814 26 176 12.9 12.9 0.00 0.00 0.00 33 1003.0
20260503204314 26 198 1.6 8.0 0.00 0.00 0.00 35 1003.0
20260503203814 26 261 11.3 11.3 0.00 0.00 0.00 32 1003.0
20260503203315 26 176 16.1 16.1 0.00 0.00 0.00 33 1003.0
20260503202814 26 187 4.8 4.8 0.00 0.00 0.00 34 1003.0
20260503202314 26 278 16.1 20.9 0.00 0.00 0.00 35 1003.0
20260503201814 26 225 6.4 8.0 0.00 0.00 0.00 34 1003.0
20260503201314 25 201 11.3 11.3 0.00 0.00 0.00 35 1003.0
20260503200814 26 201 8.0 11.3 0.00 0.00 0.00 35 1004.0
20260503200314 26 202 8.0 8.0 0.00 0.00 0.00 37 1004.0
20260503195814 26 223 4.8 8.0 0.00 0.00 0.00 36 1004.0
20260503195314 25 202 16.1 17.7 0.00 0.00 0.00 37 1004.0
20260503194814 25 170 9.7 11.3 0.00 0.00 0.00 36 1004.0
20260503194314 25 206 9.7 11.3 0.00 0.00 0.00 37 1004.0
20260503193814 24 230 17.7 19.3 0.00 0.00 0.00 37 1004.0
20260503193315 25 181 11.3 19.3 0.00 0.00 0.00 37 1005.0
20260503192814 25 236 9.7 14.5 0.00 0.00 0.00 36 1005.0
20260503192314 25 185 3.2 9.7 0.00 0.00 0.00 38 1005.0
20260503191814 25 193 9.7 11.3 0.00 0.00 0.00 37 1005.0
20260503191314 25 265 6.4 14.5 0.00 0.00 0.00 36 1005.0
20260503190814 23 200 4.8 8.0 0.00 0.00 0.00 37 1005.0
20260503190315 24 184 16.1 19.3 0.00 0.00 0.00 39 1005.0
20260503185815 24 196 8.0 12.9 0.00 0.00 0.00 37 1005.0
20260503185316 24 201 6.4 8.0 0.00 0.00 0.00 39 1005.0
20260503184814 25 203 6.4 6.4 0.00 0.00 0.00 35 1005.0
20260503184314 23 219 11.3 17.7 0.00 0.00 0.00 36 1005.0
20260503183814 23 188 19.3 24.1 0.00 0.00 0.00 36 1005.0
20260503183314 24 204 6.4 8.0 0.00 0.00 0.00 36 1006.0
20260503182814 23 203 9.7 12.9 0.00 0.00 0.00 37 1006.0
20260503182315 23 197 16.1 16.1 0.00 0.00 0.00 36 1005.0
20260503181814 23 180 3.2 6.4 0.00 0.00 0.00 38 1005.0
20260503181314 23 213 12.9 17.7 0.00 0.00 0.00 36 1005.0
20260503180814 23 162 1.6 3.2 0.00 0.00 0.00 37 1006.0
20260503180314 23 234 4.8 8.0 0.00 0.00 0.00 38 1006.0
20260503175814 22 199 16.1 16.1 0.00 0.00 0.00 38 1006.0
20260503175315 23 169 9.7 9.7 0.00 0.00 0.00 41 1006.0
20260503174815 22 212 20.9 22.5 0.00 0.00 0.00 38 1006.0
20260503174314 22 193 14.5 17.7 0.00 0.00 0.00 38 1006.0
20260503173814 22 200 11.3 11.3 0.00 0.00 0.00 37 1006.0
20260503173314 22 224 11.3 22.5 0.00 0.00 0.00 39 1006.0
20260503172814 21 169 6.4 8.0 0.00 0.00 0.00 39 1006.0
20260503172314 22 199 4.8 6.4 0.00 0.00 0.00 40 1006.0
20260503171814 22 192 6.4 11.3 0.00 0.00 0.00 42 1006.0
20260503171315 21 196 12.9 19.3 0.00 0.00 0.00 38 1006.0
20260503170814 21 193 6.4 8.0 0.00 0.00 0.00 39 1006.0
20260503170314 21 220 17.7 22.5 0.00 0.00 0.00 40 1006.0
20260503150814 16 201 14.5 16.1 0.00 0.00 0.00 49 1008.0
20260503150314 16 200 14.5 22.5 0.00 0.00 0.00 50 1008.0
20260503140314 13 176 9.7 9.7 0.00 0.00 0.00 61 1009.0
20260503131314 10 234 8.0 9.7 0.00 0.00 0.00 68 1009.0
20260503130814 10 197 9.7 11.3 0.00 0.00 0.00 68 1009.0